OSSERVATORIO METEOROLOGICO COMUNALE "E. Torricelli" - Faenza (Italia)

Latitudine: 44° 17' 44.97" N - Longitudine: 11° 52' 33.27" E - Altitudine: 36 m s.l.m.

17 giugno 2019

Temperatura
(°C)
Umidità
(%)
Pressione
(hPa)
Velocità vento
(km/h)
Pioggia Rad. Sol.
(W/m2)
Max Min Med Max Min Med Max Min Max Orario Dir.
Med.
Totale
(mm)
Intensità
(mm/h)
Max
29,8 18,4 24,6 71 37 51 1013 1010 22 00:33 172 - - 1124

Orario Temperatura
(°C)
Umidità
(%)
Pressione
(hPa)
Velocità vento
(km/h)
Dir. vento
(°)
Pioggia
(mm)
Rad. Sol.
(W/m2)
0:00 22,3 56 1010,1 8 183 - -
0:15 21,9 57 1010,1 11 248 - -
0:30 21,7 56 1010,1 12 263 - -
0:45 21,5 56 1010,1 9 218 - -
1:00 21,2 56 1010,1 10 245 - -
1:15 21,1 55 1010,0 7 238 - -
1:30 20,9 55 1010,0 6 165 - -
1:45 20,7 55 1009,9 7 260 - -
2:00 20,6 56 1009,9 8 225 - -
2:15 20,4 56 1009,8 10 223 - -
2:30 20,2 57 1009,7 6 220 - -
2:45 19,9 61 1010,0 0 - - -
3:00 19,7 62 1010,2 1 15 - -
3:15 19,5 64 1010,3 0 - - -
3:30 19,7 64 1010,2 4 265 - -
3:45 19,3 63 1010,3 0 - - -
4:00 19,1 64 1010,3 4 208 - -
4:15 19,0 65 1010,3 4 253 - -
4:30 19,0 65 1010,3 6 230 - 0,1
4:45 18,8 65 1010,4 4 255 - 4,3
5:00 18,5 67 1010,6 0 - - 14,6
5:15 18,9 68 1011,0 4 220 - 31,5
5:30 18,7 70 1011,3 0 - - 40,7
5:45 19,2 69 1011,5 4 238 - 53,7
6:00 19,4 67 1011,6 4 230 - 74,6
6:15 19,7 67 1011,7 5 235 - 245,7
6:30 20,0 66 1011,8 3 130 - 272,3
6:45 20,4 66 1012,0 1 205 - 117,0
7:00 21,5 62 1012,2 3 230 - 400,8
7:15 22,3 56 1012,4 0 - - 381,0
7:30 23,7 54 1012,5 4 303 - 473,7
7:45 24,3 49 1012,5 4 330 - 531,8
8:00 24,7 49 1012,6 4 295 - 547,0
8:15 25,0 51 1012,5 3 43 - 652,0
8:30 25,4 49 1012,4 4 320 - 618,9
8:45 26,7 53 1012,4 4 55 - 656,5
9:00 26,6 47 1012,4 1 305 - 695,3
9:15 27,0 47 1012,4 1 40 - 721,7
9:30 27,2 45 1012,4 4 63 - 735,6
9:45 27,1 46 1012,4 5 88 - 835,8
10:00 26,6 45 1012,4 3 315 - 385,3
10:15 27,5 43 1012,4 1 60 - 814,0
10:30 27,5 44 1012,3 4 320 - 773,3
10:45 27,9 44 1012,3 6 13 - 807,3
11:00 27,2 45 1012,2 2 23 - 536,9
11:15 28,3 47 1012,2 2 120 - 1004,3
11:30 28,1 45 1012,2 4 300 - 1064,9
11:45 28,6 44 1012,2 6 43 - 756,5
12:00 27,3 47 1012,1 4 155 - 1028,5
12:15 28,1 45 1012,1 4 13 - 696,2
12:30 28,4 43 1012,0 8 73 - 919,0
12:45 28,2 42 1012,0 14 45 - 900,7
13:00 28,1 41 1011,8 4 145 - 890,3
13:15 28,6 40 1011,8 4 25 - 881,3
13:30 28,7 40 1011,8 9 353 - 858,8
13:45 28,6 39 1012,0 5 323 - 841,1
14:00 28,8 39 1011,9 4 80 - 820,0
14:15 28,9 37 1011,6 3 45 - 797,0
14:30 28,6 40 1011,4 9 13 - 772,8
14:45 29,0 41 1011,2 4 68 - 387,9
15:00 28,9 40 1011,3 1 223 - 712,2
15:15 28,5 39 1011,2 4 55 - 681,0
15:30 28,7 41 1011,1 4 135 - 645,4
15:45 28,6 42 1011,0 5 85 - 608,0
16:00 28,5 40 1011,0 5 128 - 565,9
16:15 28,4 40 1011,0 10 163 - 531,5
16:30 28,8 42 1011,0 1 113 - 491,9
16:45 28,6 40 1011,0 3 223 - 450,2
17:00 28,3 39 1010,9 2 283 - 410,6
17:15 28,4 42 1010,9 4 138 - 353,3
17:30 28,2 38 1010,8 1 138 - 305,3
17:45 27,5 40 1010,7 2 143 - 116,8
18:00 26,7 43 1010,6 8 118 - 68,0
18:15 - - - - - - -
18:30 - - - - - - -
18:45 - - - - - - -
19:00 - - - - - - -
19:15 - - - - - - -
19:30 - - - - - - -
19:45 - - - - - - -
20:00 - - - - - - -
20:15 - - - - - - -
20:30 - - - - - - -
20:45 - - - - - - -
21:00 - - - - - - -
21:15 - - - - - - -
21:30 - - - - - - -
21:45 - - - - - - -
22:00 - - - - - - -
22:15 - - - - - - -
22:30 - - - - - - -
22:45 - - - - - - -
23:00 - - - - - - -
23:15 - - - - - - -
23:30 - - - - - - -
23:45 - - - - - - -
24:00 - - - - - - -